Regional Weather Roundup
Issued by NWS

Home | Current Version | Previous Version | Graphics & Text | Print | Product List | Glossary Off
Versions: 1 2 3 4 5 6 7 8 9 10 11 12 13 14 15 16 17 18 19 20 21 22 23 24 25 26 27 28 29 30 31 32 33 34 35 36 37 38 39 40 41 42 43 44 45 46 47 48 49 50

000
ASUS43 KDMX 251901
RWRIA

WEATHER ROUNDUP FOR IOWA
NATIONAL WEATHER SERVICE DES MOINES IA
200 PM CDT WED APR 25 2018

NOTE: "FAIR" INDICATES FEW OR NO CLOUDS BELOW 12,000 FEET WITH NO
SIGNIFICANT WEATHER AND/OR OBSTRUCTIONS TO VISIBILITY.

* - THESE STATIONS ARE NOT NWS STATIONS...THUS NOT UNDER NWS
QUALITY CONTROL.  THEY ALSO DO NOT REPORT WEATHER SUCH
AS PRECIPITATION OR FOG.

IAZ001>003-012>014-020>022-031>034-043>046-252000-
   NORTHWEST IOWA

CITY           SKY/WX    TMP DP  RH WIND       PRES   REMARKS
CARROLL *      SUNNY     61  27  27 N8G15     30.14F
CHEROKEE *     SUNNY     58  28  31 W3        30.16F
DENISON *      SUNNY     59  30  33 N12       30.16F
LE MARS *      SUNNY     59  30  33 NW7       30.16F
ORANGE CITY *  SUNNY     57  32  38 N6        30.16F
SHELDON *      SUNNY     55  27  33 VRB6G13   30.14F
SIOUX CITY     SUNNY     58  35  42 NW9       30.17F
SPENCER        SUNNY     57  29  34 MISG      30.16F
STORM LAKE *     N/A     55  27  33 N10       30.15F
$$

IAZ055>058-069>071-079>083-090>094-252000-
   SOUTHWEST IOWA

CITY           SKY/WX    TMP DP  RH WIND       PRES   REMARKS
ATLANTIC *     CLOUDY    59  32  36 N9        30.14F
AUDUBON *      SUNNY     61  27  27 N10       30.15F
COUNCIL BLFS * PTSUNNY   52  45  76 VRB5      30.17
CRESTON *      CLOUDY    55  37  50 NW9G16    30.15F
HARLAN  *      SUNNY     59  28  31 N10       30.18F
LAMONI         LGT RAIN  51  41  68 NW6       30.13F
RED OAK *      CLOUDY    54  43  66 N7        30.17F
SHENANDOAH *   CLOUDY    50  45  81 N10       30.18F
$$

IAZ047>049-059>061-072>074-084-252000-
   CENTRAL IOWA

CITY           SKY/WX    TMP DP  RH WIND       PRES   REMARKS
AMES           SUNNY     62  29  28 VRB7      30.12F
ANKENY *       MOSUNNY   61  27  27 CALM      30.13F
BOONE *        SUNNY     59  28  31 NW5G16    30.12F
CHARITON *     CLOUDY    61  36  39 N10       30.11F
DES MOINES     CLOUDY    63  29  27 N12       30.12F
GRINNELL*      MOSUNNY   61  27  27 NE9G16    30.11F
KNOXVILLE *    PTSUNNY   59  27  29 VRB7G14   30.10F
MARSHALLTOWN   SUNNY     60  30  32 N6G16     30.10F
NEWTON *       MOSUNNY   61  28  29 NE8G21    30.11F
PELLA *        CLOUDY    63  28  27 N5        30.12F
$$

IAZ004>006-015-016-023>025-035-036-252000-
   NORTH CENTRAL IOWA

CITY           SKY/WX    TMP DP  RH WIND       PRES   REMARKS
ALGONA *       SUNNY     54  34  47 NW8       30.17F
CLARION *      SUNNY     57  34  41 N10G16    30.14F
ESTHERVILLE    SUNNY     53  33  46 VRB5      30.16F
FORT DODGE *   SUNNY     58  33  39 N7        30.15F
MASON CITY     SUNNY     57  34  41 W13       30.15F
FOREST CITY *  FAIR      55  34  44 N7        30.16F
WEBSTER CITY * SUNNY     59  28  31 NE6       30.11F
IOWA FALLS *   FAIR      60  31  34 CALM      30.14F
$$

IAZ007>011-017>019-026>030-037>042-050>054-066-252000-
   NORTHEAST IOWA

CITY           SKY/WX    TMP DP  RH WIND       PRES   REMARKS
CEDAR RAPIDS   FAIR      63  30  28 N13G21    30.07F
CHARLES CITY * FAIR      57  32  38 N8G15     30.13F
CLINTON *      FAIR      61  33  35 N9        30.08F
DECORAH *      FAIR      55  32  41 VRB7G14   30.10F
DUBUQUE        FAIR      59  32  36 NE9       30.09F
MONTICELLO *   FAIR      61  30  31 NW8G14    30.08F
OELWEIN *      FAIR      57  32  38 N7G14     30.11F
WATERLOO       FAIR      61  33  35 VRB7      30.10F
$$

IAZ064-065-067-068-078-252000-
   EAST CENTRAL IOWA

CITY           SKY/WX    TMP DP  RH WIND       PRES   REMARKS
DAVENPORT      FAIR      62  31  31 N9G17     30.08F
IOWA CITY      FAIR      63  33  32 NE8       30.09F
MT. PLEASANT * PTSUNNY   59  32  36 E12       30.09F
MUSCATINE *    FAIR      63  30  29 NE9       30.08F
QUAD CITIES    FAIR      63  34  33 NE3       30.06F
$$

IAZ062-063-075>077-085>089-095>099-252000-
   SOUTHEAST IOWA

CITY           SKY/WX    TMP DP  RH WIND       PRES   REMARKS
BURLINGTON     CLOUDY    59  38  45 N8        30.08F
FAIRFIELD *    MOSUNNY   61  32  33 E8        30.08F
FORT MADISON * CLOUDY    61  39  44 N7        30.09F
KEOKUK *       CLOUDY    59  39  47 N12       30.09R
OSKALOOSA *    FAIR      63  31  30 N9        30.10F
CENTERVILLE *  FAIR      59  37  44 N6        30.12F
OTTUMWA        CLOUDY    62  35  36 CALM      30.09F
WASHINGTON *   MOSUNNY   63  32  31 N8        30.09F
$$

ABBREVIATIONS USED IN REMARKS
   TC - TEMPERATURES IN CELSIUS
  WCI - WIND CHILL INDEX
   HX - HEAT INDEX
  VSB - VISIBILITY
$$




USA.gov is the U.S. government's official web portal to all federal, state and local government web resources and services.